Location: Moscow Pond
(43.6842°N, 73.2366°W)
Time: 21:34:28
(UTC+00:00)

Cosmos 2100 Rocket - Pass Details

Date: 08 November 2025
Orbit: 954 x 1000 km, 82.9° (Epoch: 10 December)

Event Time Altitude Azimuth Distance (km) Brightness Sun altitude
Rises 09:39:00 0° 349° (N) 3,642 6.9 -21.8°
Reaches altitude 10° 09:41:31 10° 347° (NNW) 2,693 6.1 -21.3°
Maximum altitude 09:47:36 67° 266° (W) 1,034 3.8 -20.2°
Drops below altitude 10° 09:53:41 10° 185° (S) 2,689 6.3 -19.1°
Sets 09:56:11 0° 183° (S) 3,636 7.0 -18.7°
